{"data":{"norad_id":56355,"epoch":"2026-08-28T11:57:10.090080Z","epoch_age_seconds":2096127,"freshness":"OLD","line1":"1 56355U 23058AQ  26240.49803345  .13578375  26805-5  14496-3 0  9994","line2":"2 56355  97.5031 248.6111 0014040 243.3442 116.6425 16.49931564184641","mean_motion":16.49931564,"eccentricity":0.001404,"inclination_deg":97.5031,"raan_deg":248.6111,"arg_perigee_deg":243.3442,"mean_anomaly_deg":116.6425,"bstar":0.00014496,"rev_number":18464,"period_min":87.27634717824,"perigee_km":130.36500293833,"apogee_km":148.66657196549,"semimajor_km":6517.6527874519,"source":"CELESTRAK","updated_at":"2026-08-29T09:01:32.290966Z"}}